Birmingham, AL

7:45 PM CDT on August 28, 2016 (GMT -0500)
Birmingham International

Weather History for KBHM - June, 2013

Change the Weather History Date:

Thursday, June 13, 2013

  Actual Average Record
Temperature  
Mean Temperature 83 °F 77 °F  
Max Temperature 93 °F 87 °F 99 °F (1977)
Min Temperature 73 °F 67 °F 49 °F (1985)
Cooling Degree Days 18 12  
Month to date cooling degree days 177 144  
Year to date cooling degree days 442 426  
Since 1 June cooling degree days 177 144  
Growing Degree Days 35 (Base 50)    
Moisture  
Dew Point 72 °F    
Average Humidity 67    
Maximum Humidity 85    
Minimum Humidity 49    
Precipitation  
Precipitation 0.02 in 0.14 in 2.23 in (1912)
Month to date precipitation 6.00 1.85  
Year to date precipitation 36.51 25.82  
Sea Level Pressure  
Sea Level Pressure 29.92 in    
Wind  
Wind Speed 10 mph (West)    
Max Wind Speed 21 mph    
Max Gust Speed 28 mph    
Visibility 9 miles    
Events Rain , Thunderstorm    
T = Trace of Precipitation, MM = Missing Value Source: NWS Daily Summary

Daily Weather History Graph

Daily Weather History Graph

Search for Another Location

Airport or City:

Trip Planner

Search our weather history database for the weather conditions in past years. The results will help you decide how hot, cold, wet, or windy it might be!

Date:

Astronomy

Jun. 13, 2013 Rise Set
Actual Time 5:36 AM CDT 7:58 PM CDT
Civil Twilight 5:07 AM CDT 8:26 PM CDT
Nautical Twilight 4:31 AM CDT 9:02 PM CDT
Astronomical Twilight 3:53 AM CDT 9:41 PM CDT
Moon 10:01 AM CDT (6/13) 11:16 PM CDT (6/13)
Length of Visible Light 15h 19m
Length of Day
14h 21m
Waxing Crescent, 22% of the Moon is Illuminated
Jun 13
Waxing Crescent
Jun 16
First Quarter
Jun 23
Full
Jun 29
Last Quarter
Jul 8
New

Hourly Weather History & Observations

Time (CDT) Temp. Heat Index Dew Point Humidity Pressure Visibility Wind Dir Wind Speed Gust Speed Precip Events Conditions
12:53 AM 82.0 °F 85.9 °F 70.0 °F 67% 29.99 in 10.0 mi SW 5.8 mph - N/A   Clear
1:53 AM 81.0 °F 84.4 °F 70.0 °F 69% 29.99 in 10.0 mi WSW 5.8 mph - N/A   Clear
2:53 AM 79.0 °F - 70.0 °F 74% 29.99 in 10.0 mi West 6.9 mph - N/A   Clear
3:53 AM 78.1 °F - 71.1 °F 79% 29.98 in 10.0 mi West 4.6 mph - N/A   Clear
4:53 AM 78.1 °F - 71.1 °F 79% 29.98 in 10.0 mi WSW 5.8 mph - N/A   Clear
5:53 AM 77.0 °F - 71.1 °F 82% 29.99 in 9.0 mi WSW 6.9 mph - N/A   Clear
6:53 AM 79.0 °F - 71.1 °F 77% 30.00 in 9.0 mi West 8.1 mph - N/A   Clear
7:53 AM 81.0 °F 84.9 °F 71.1 °F 72% 30.01 in 10.0 mi West 9.2 mph - N/A   Clear
8:53 AM 84.0 °F 89.0 °F 71.1 °F 65% 30.00 in 10.0 mi West 11.5 mph - N/A   Partly Cloudy
9:53 AM 86.0 °F 91.5 °F 71.1 °F 61% 29.98 in 10.0 mi West 16.1 mph 20.7 mph N/A   Partly Cloudy
10:53 AM 87.1 °F 92.8 °F 71.1 °F 59% 29.97 in 10.0 mi West 16.1 mph 25.3 mph N/A   Mostly Cloudy
11:53 AM 88.0 °F 93.8 °F 71.1 °F 57% 29.95 in 10.0 mi West 16.1 mph - N/A   Scattered Clouds
12:53 PM 90.0 °F 96.4 °F 71.1 °F 54% 29.93 in 10.0 mi West 16.1 mph 26.5 mph N/A   Scattered Clouds
1:53 PM 91.9 °F 98.4 °F 71.1 °F 50% 29.91 in 10.0 mi West 17.3 mph 24.2 mph N/A   Scattered Clouds
2:53 PM 93.0 °F 100.7 °F 72.0 °F 50% 29.89 in 10.0 mi West 18.4 mph 21.9 mph N/A   Scattered Clouds
3:53 PM 91.0 °F 98.2 °F 72.0 °F 53% 29.86 in 10.0 mi West 17.3 mph - N/A   Mostly Cloudy
4:53 PM 90.0 °F 97.9 °F 73.0 °F 57% 29.85 in 10.0 mi West 13.8 mph 23.0 mph N/A   Mostly Cloudy
5:53 PM 88.0 °F 96.5 °F 73.9 °F 63% 29.81 in 10.0 mi WSW 12.7 mph 20.7 mph N/A   Scattered Clouds
6:53 PM 86.0 °F 93.8 °F 73.9 °F 67% 29.81 in 10.0 mi WSW 12.7 mph - N/A   Mostly Cloudy
7:29 PM 86.0 °F 93.4 °F 73.4 °F 66% 29.85 in 10.0 mi WSW 12.7 mph - 0.00 in Thunderstorm Thunderstorm
7:42 PM 84.2 °F 90.9 °F 73.4 °F 70% 29.85 in 2.0 mi WNW 13.8 mph - 0.00 in Rain , Thunderstorm Light Thunderstorms and Rain
7:53 PM 82.0 °F 89.4 °F 75.9 °F 82% 29.83 in 3.0 mi NW 4.6 mph - 0.02 in Rain , Thunderstorm Light Thunderstorms and Rain
7:55 PM 82.4 °F 89.5 °F 75.2 °F 79% 29.85 in 7.0 mi West 3.5 mph - 0.00 in Rain Light Rain
8:53 PM 80.1 °F 85.4 °F 75.9 °F 87% 29.86 in 10.0 mi SE 3.5 mph - 0.00 in   Overcast
9:53 PM 79.0 °F - 73.9 °F 84% 29.88 in 10.0 mi NNW 6.9 mph - N/A   Clear
10:53 PM 77.0 °F - 71.1 °F 82% 29.89 in 10.0 mi North 9.2 mph - N/A   Clear
11:53 PM 75.0 °F - 69.1 °F 82% 29.91 in 10.0 mi NNW 3.5 mph - N/A   Clear